Weather in Alexandrovka

Ukraine / Mykolaiv District     47°27′43″N   30°55′29″E
В апреле 2022 года жителям России запретили посещать сайт meteo.paraplan.net по решению Генеральной прокуратуры. Аудитория сайта уменьшилась в 10 раз. Владельцы сайта не видят смысла в поддержке погодного сервера в таких условиях. Сайт будет закрыт в октябре.
temp.,
°C
wind,
m/s
gust,
m/s
humid.,
%
clouds,
%
prec.,
mm/h
press.,
hPa
HPBL,
m
25 september, sun
sun2500:00+9w34695 0.0 101962
03:00+8w47711 0.0 1020116
06:00+7w357416 0.0 101982
09:00+12w4556100 0.0 1020276
12:00+17wsw453899 0.0 10191416
15:00+19sw45305 0.0 10172064
18:00+18wsw223516 0.0 101623
21:00+15ssw51259100 0.0 1016298
26 september, mon
mon2600:00+14ssw3774100 0.0 1015173
03:00+14sw3471100 0.0 101573
06:00+12ssw378799 0.0 1014138
09:00+17s5107273 0.0 1014617
12:00+22s89485 0.0 10121717
15:00+23s8104599 0.0 10101795
18:00+19s812677 0.1 1010616
21:00+17s61283100 0.1 1010383
27 september, tue
tue2700:00+16s51187100 0.0 1009345
03:00+15sse41093100 0.0 1007283
06:00+16sse3889100 0.0 1006351
09:00+17sse4980100 0.0 1004461
12:00+22sse8105488 0.0 10021185
15:00+20s6962100 0.0 1001944
18:00+20sse5872100 0.0 999451
21:00+19ssw71265100 0.3 999293
28 september, wed
wed2800:00+16sw3677100 0.1 1000193
03:00+13w359058 0.1 1001117
06:00+12wnw35925 0.0 100294
09:00+15nw45710 0.0 1003309
12:00+20wnw34464 0.0 1004976
15:00+22wnw3338100 0.0 10031867
18:00+21nnw224435 0.0 100533
21:00+18ene3452100 0.0 100697
29 september, thu
thu2900:00+18ese475511 0.0 1007193
03:00+15sse347529 0.0 100860
06:00+14se367876 0.0 100992
09:00+18se6967100 0.0 1010362
12:00+23sse7849100 0.0 10101164
15:00+24s7743100 0.0 10101664
18:00+21sse6952100 0.0 1010474
21:00+19sse3864100 0.1 1012295